| time (UTC) | temp C | wind direction | speed KPH | gust KPH | rain 1hr cm | rain 24hr cm | rain mn cm | humidity % | barometer mb |
| 20260510130522 | 18 | 125 | 3.2 | 6.4 | 0.00 | 2.79 | 0.00 | 98 | 1018.2 |
| 20260510130038 | 18 | 0 | 1.6 | 4.8 | 0.00 | 2.79 | 0.00 | 98 | 1018.1 |
| 20260510125524 | 18 | 0 | 1.6 | 9.7 | 0.00 | 5.84 | 0.00 | 98 | 1018.0 |
| 20260510125021 | 18 | 125 | 1.6 | 9.7 | 0.00 | 5.84 | 0.00 | 98 | 1017.9 |
| 20260510124536 | 18 | 125 | 1.6 | 8.0 | 0.00 | 5.84 | 0.00 | 98 | 1017.9 |
| 20260510124019 | 18 | 0 | 0.0 | 4.8 | 0.00 | 5.84 | 0.00 | 98 | 1017.9 |
| 20260510123519 | 18 | 49 | 0.0 | 4.8 | 0.00 | 5.84 | 0.00 | 98 | 1017.8 |
| 20260510123036 | 18 | 48 | 0.0 | 4.8 | 0.00 | 5.84 | 0.00 | 98 | 1017.7 |
| 20260510122521 | 18 | 0 | 0.0 | 4.8 | 0.00 | 5.84 | 0.00 | 98 | 1017.6 |
| 20260510122020 | 18 | 48 | 0.0 | 4.8 | 0.00 | 5.84 | 0.00 | 98 | 1017.4 |
| 20260510121535 | 18 | 0 | 0.0 | 4.8 | 0.00 | 5.84 | 0.00 | 98 | 1017.4 |
| 20260510121022 | 18 | 48 | 1.6 | 4.8 | 0.00 | 5.84 | 0.00 | 98 | 1017.3 |
| 20260510120526 | 18 | 48 | 0.0 | 3.2 | 0.00 | 5.84 | 0.00 | 98 | 1017.2 |
| 20260510120140 | 18 | 48 | 0.0 | 3.2 | 0.00 | 5.84 | 0.00 | 98 | 1017.3 |
| 20260510115522 | 18 | 0 | 0.0 | 3.2 | 0.00 | 5.87 | 0.00 | 98 | 1017.2 |
| 20260510115022 | 17 | 0 | 0.0 | 0.0 | 0.00 | 5.87 | 0.00 | 98 | 1017.2 |
| 20260510114537 | 17 | 0 | 0.0 | 0.0 | 0.00 | 5.87 | 0.00 | 98 | 1017.2 |
| 20260510114020 | 17 | 0 | 0.0 | 1.6 | 0.00 | 5.87 | 0.00 | 98 | 1017.0 |
| 20260510113521 | 17 | 0 | 0.0 | 3.2 | 0.00 | 5.87 | 0.00 | 98 | 1016.9 |
| 20260510113041 | 17 | 0 | 0.0 | 4.8 | 0.00 | 5.87 | 0.00 | 98 | 1016.8 |
| 20260510112521 | 17 | 0 | 0.0 | 4.8 | 0.00 | 5.87 | 0.00 | 98 | 1016.6 |
| 20260510112023 | 17 | 48 | 0.0 | 4.8 | 0.00 | 5.87 | 0.00 | 98 | 1016.4 |
| 20260510111536 | 17 | 0 | 0.0 | 3.2 | 0.00 | 5.87 | 0.00 | 98 | 1016.2 |
| 20260510111021 | 17 | 0 | 0.0 | 6.4 | 0.00 | 5.87 | 0.00 | 98 | 1016.1 |
| 20260510110520 | 17 | 0 | 0.0 | 8.0 | 0.00 | 5.87 | 0.00 | 98 | 1016.1 |
| 20260510110047 | 17 | 11 | 3.2 | 8.0 | 0.00 | 5.87 | 0.00 | 98 | 1015.9 |
| 20260510105522 | 17 | 5 | 1.6 | 6.4 | 0.00 | 5.87 | 0.00 | 98 | 1015.8 |
| 20260510105020 | 18 | 9 | 1.6 | 4.8 | 0.00 | 5.87 | 0.00 | 98 | 1015.6 |
| 20260510104540 | 18 | 0 | 1.6 | 6.4 | 0.00 | 5.87 | 0.00 | 98 | 1015.6 |
| 20260510104021 | 18 | 0 | 0.0 | 6.4 | 0.00 | 5.87 | 0.00 | 98 | 1015.6 |
| 20260510103521 | 18 | 11 | 1.6 | 6.4 | 0.00 | 5.87 | 0.00 | 98 | 1015.4 |
| 20260510103039 | 18 | 11 | 1.6 | 6.4 | 0.00 | 5.87 | 0.00 | 98 | 1015.5 |
| 20260510102521 | 18 | 84 | 0.0 | 3.2 | 0.00 | 5.87 | 0.00 | 98 | 1015.3 |
| 20260510102021 | 18 | 0 | 0.0 | 4.8 | 0.00 | 5.87 | 0.00 | 98 | 1015.3 |
| 20260510101541 | 18 | 0 | 0.0 | 4.8 | 0.00 | 5.87 | 0.00 | 98 | 1015.2 |
| 20260510101022 | 18 | 84 | 0.0 | 4.8 | 0.00 | 5.87 | 0.00 | 98 | 1015.3 |
| 20260510100522 | 18 | 0 | 1.6 | 4.8 | 0.00 | 5.87 | 0.00 | 98 | 1015.2 |
| 20260510100047 | 18 | 0 | 0.0 | 4.8 | 0.00 | 5.87 | 0.00 | 98 | 1015.1 |
| 20260510095521 | 18 | 0 | 1.6 | 4.8 | 0.00 | 5.87 | 0.00 | 98 | 1015.0 |
| 20260510095021 | 18 | 0 | 0.0 | 3.2 | 0.00 | 5.87 | 0.00 | 98 | 1015.1 |
| 20260510094541 | 18 | 85 | 1.6 | 3.2 | 0.00 | 5.87 | 0.00 | 98 | 1014.9 |
| 20260510094022 | 18 | 0 | 0.0 | 4.8 | 0.00 | 5.87 | 0.00 | 98 | 1015.0 |
| 20260510093521 | 18 | 85 | 1.6 | 4.8 | 0.00 | 5.87 | 0.00 | 98 | 1015.0 |
| 20260510093039 | 18 | 0 | 0.0 | 4.8 | 0.00 | 5.87 | 0.00 | 98 | 1015.0 |
| 20260510092522 | 18 | 85 | 0.0 | 4.8 | 0.00 | 5.87 | 0.00 | 98 | 1015.0 |
| 20260510092021 | 18 | 0 | 0.0 | 4.8 | 0.00 | 5.87 | 0.00 | 98 | 1015.0 |
| 20260510091534 | 18 | 83 | 1.6 | 4.8 | 0.00 | 5.87 | 0.00 | 98 | 1015.1 |
| 20260510091020 | 18 | 83 | 0.0 | 4.8 | 0.00 | 5.87 | 0.00 | 98 | 1015.1 |
| 20260510090522 | 18 | 83 | 1.6 | 4.8 | 0.00 | 5.87 | 0.00 | 98 | 1015.2 |
| 20260510090035 | 18 | 0 | 0.0 | 3.2 | 0.00 | 5.87 | 0.00 | 98 | 1015.2 |
| 20260510085521 | 18 | 355 | 0.0 | 3.2 | 0.00 | 5.94 | 0.00 | 98 | 1015.2 |
| 20260510085021 | 18 | 352 | 0.0 | 3.2 | 0.00 | 5.94 | 0.00 | 98 | 1015.1 |
| 20260510084539 | 18 | 0 | 0.0 | 1.6 | 0.00 | 5.94 | 0.00 | 98 | 1015.1 |
| 20260510084020 | 18 | 0 | 0.0 | 6.4 | 0.00 | 5.94 | 0.00 | 98 | 1015.1 |
| 20260510083523 | 18 | 0 | 1.6 | 6.4 | 0.00 | 5.94 | 0.00 | 98 | 1015.0 |
| 20260510083036 | 18 | 352 | 1.6 | 6.4 | 0.00 | 5.94 | 0.00 | 98 | 1015.0 |
| 20260510082519 | 18 | 0 | 1.6 | 6.4 | 0.00 | 5.94 | 0.00 | 98 | 1015.0 |
| 20260510082019 | 18 | 62 | 1.6 | 4.8 | 0.00 | 5.94 | 0.00 | 98 | 1015.0 |
| 20260510081541 | 18 | 62 | 1.6 | 4.8 | 0.00 | 5.94 | 0.00 | 98 | 1014.9 |
| 20260510081022 | 18 | 69 | 1.6 | 6.4 | 0.00 | 5.94 | 0.00 | 98 | 1015.0 |
| 20260510080521 | 18 | 69 | 1.6 | 6.4 | 0.00 | 5.94 | 0.00 | 98 | 1014.9 |
| 20260510080051 | 18 | 69 | 1.6 | 6.4 | 0.00 | 5.94 | 0.00 | 98 | 1014.9 |
| 20260510075522 | 18 | 101 | 0.0 | 3.2 | 0.00 | 5.99 | 0.00 | 98 | 1014.7 |
| 20260510075022 | 18 | 0 | 0.0 | 3.2 | 0.00 | 5.99 | 0.00 | 98 | 1014.8 |
| 20260510074538 | 18 | 0 | 0.0 | 3.2 | 0.00 | 5.99 | 0.00 | 98 | 1014.8 |
| 20260510074021 | 18 | 0 | 0.0 | 3.2 | 0.00 | 5.99 | 0.00 | 98 | 1014.7 |
| 20260510073521 | 18 | 103 | 0.0 | 3.2 | 0.00 | 5.99 | 0.00 | 98 | 1014.7 |
| 20260510073049 | 18 | 0 | 0.0 | 3.2 | 0.00 | 5.99 | 0.00 | 98 | 1014.6 |
| 20260510072518 | 18 | 0 | 0.0 | 3.2 | 0.00 | 5.99 | 0.00 | 98 | 1014.5 |
| 20260510072018 | 18 | 0 | 0.0 | 3.2 | 0.00 | 5.99 | 0.00 | 98 | 1014.4 |
| 20260510071538 | 18 | 103 | 1.6 | 4.8 | 0.00 | 5.99 | 0.00 | 98 | 1014.3 |
| 20260510071018 | 18 | 0 | 0.0 | 4.8 | 0.00 | 5.99 | 0.00 | 98 | 1014.3 |
| 20260510070518 | 18 | 38 | 1.6 | 4.8 | 0.00 | 5.99 | 0.00 | 98 | 1014.3 |
| 20260510070046 | 18 | 38 | 1.6 | 4.8 | 0.00 | 5.99 | 0.00 | 98 | 1014.4 |
| 20260510065518 | 18 | 0 | 0.0 | 3.2 | 0.00 | 5.99 | 0.00 | 98 | 1014.4 |
| 20260510065021 | 18 | 0 | 0.0 | 6.4 | 0.00 | 5.99 | 0.00 | 98 | 1014.5 |
| 20260510064543 | 18 | 0 | 1.6 | 6.4 | 0.00 | 5.99 | 0.00 | 98 | 1014.6 |
| 20260510064021 | 18 | 69 | 0.0 | 3.2 | 0.00 | 5.99 | 0.00 | 98 | 1014.7 |
| 20260510063521 | 18 | 0 | 0.0 | 4.8 | 0.00 | 5.99 | 0.00 | 98 | 1014.7 |
| 20260510063038 | 18 | 0 | 0.0 | 4.8 | 0.00 | 5.99 | 0.00 | 98 | 1014.8 |
| 20260510062519 | 18 | 69 | 0.0 | 4.8 | 0.00 | 5.99 | 0.00 | 98 | 1014.8 |
| 20260510062020 | 18 | 0 | 0.0 | 0.0 | 0.00 | 5.99 | 0.00 | 98 | 1014.9 |
| 20260510061535 | 18 | 0 | 0.0 | 0.0 | 0.00 | 5.99 | 0.00 | 98 | 1014.9 |
| 20260510061019 | 18 | 0 | 0.0 | 0.0 | 0.00 | 5.99 | 0.00 | 98 | 1015.0 |
| 20260510060519 | 18 | 0 | 0.0 | 3.2 | 0.00 | 5.99 | 0.00 | 98 | 1015.0 |
| 20260510060041 | 18 | 0 | 0.0 | 4.8 | 0.00 | 5.99 | 0.00 | 98 | 1015.0 |
| 20260510055526 | 18 | 68 | 0.0 | 4.8 | 0.00 | 6.25 | 0.00 | 98 | 1015.1 |
| 20260510055018 | 18 | 68 | 1.6 | 4.8 | 0.00 | 6.25 | 0.00 | 98 | 1015.1 |
| 20260510054537 | 18 | 68 | 0.0 | 4.8 | 0.00 | 6.25 | 0.00 | 98 | 1015.2 |
| 20260510054018 | 18 | 0 | 0.0 | 4.8 | 0.00 | 6.25 | 0.00 | 98 | 1015.0 |
| 20260510053520 | 18 | 69 | 0.0 | 3.2 | 0.00 | 6.25 | 0.00 | 98 | 1014.9 |
| 20260510053037 | 18 | 69 | 0.0 | 3.2 | 0.00 | 6.25 | 0.00 | 98 | 1014.9 |
| 20260510052519 | 18 | 69 | 0.0 | 4.8 | 0.00 | 6.25 | 0.00 | 98 | 1015.0 |
| 20260510052018 | 18 | 0 | 1.6 | 4.8 | 0.00 | 6.25 | 0.00 | 98 | 1015.1 |
| 20260510051536 | 18 | 0 | 0.0 | 3.2 | 0.00 | 6.25 | 0.00 | 98 | 1015.2 |
| 20260510051018 | 18 | 0 | 0.0 | 4.8 | 0.00 | 6.25 | 0.00 | 98 | 1015.1 |
| 20260510050519 | 18 | 69 | 0.0 | 4.8 | 0.00 | 6.25 | 0.00 | 98 | 1015.0 |
| 20260510050037 | 18 | 69 | 1.6 | 4.8 | 0.00 | 6.25 | 0.00 | 98 | 1015.0 |
| 20260510045522 | 18 | 0 | 1.6 | 4.8 | 0.00 | 6.30 | 6.25 | 98 | 1015.0 |
| 20260510045019 | 18 | 88 | 1.6 | 4.8 | 0.00 | 6.30 | 6.25 | 98 | 1015.1 |
| 20260510044536 | 18 | 0 | 0.0 | 0.0 | 0.00 | 6.30 | 6.25 | 98 | 1014.9 |
| 20260510044019 | 18 | 0 | 0.0 | 0.0 | 0.00 | 6.30 | 6.25 | 98 | 1014.9 |
| 20260510043518 | 18 | 0 | 0.0 | 0.0 | 0.00 | 6.30 | 6.25 | 98 | 1014.9 |
| 20260510043034 | 19 | 0 | 0.0 | 0.0 | 0.00 | 6.30 | 6.25 | 98 | 1014.7 |
| 20260510042518 | 18 | 0 | 0.0 | 3.2 | 0.00 | 6.30 | 6.25 | 98 | 1014.8 |
| 20260510042020 | 19 | 0 | 0.0 | 4.8 | 0.00 | 6.30 | 6.25 | 98 | 1014.9 |
| 20260510041539 | 19 | 88 | 1.6 | 4.8 | 0.00 | 6.30 | 6.25 | 98 | 1014.9 |
| 20260510041023 | 18 | 88 | 1.6 | 4.8 | 0.00 | 6.30 | 6.25 | 98 | 1014.9 |
| 20260510040519 | 18 | 0 | 0.0 | 4.8 | 0.00 | 6.30 | 6.25 | 98 | 1014.7 |
| 20260510040038 | 19 | 0 | 0.0 | 6.4 | 0.00 | 6.30 | 6.25 | 98 | 1014.6 |
| 20260510035521 | 19 | 130 | 0.0 | 9.7 | 0.00 | 6.30 | 6.25 | 98 | 1014.6 |
| 20260510035019 | 19 | 130 | 0.0 | 9.7 | 0.00 | 6.30 | 6.25 | 98 | 1014.7 |
| 20260510034536 | 19 | 111 | 3.2 | 8.0 | 0.00 | 6.30 | 6.25 | 98 | 1014.6 |
| 20260510034022 | 19 | 0 | 0.0 | 3.2 | 0.00 | 6.30 | 6.25 | 98 | 1015.1 |
| 20260510033519 | 19 | 0 | 0.0 | 3.2 | 0.00 | 6.30 | 6.25 | 98 | 1015.3 |
| 20260510033046 | 19 | 0 | 0.0 | 6.4 | 0.00 | 6.30 | 6.25 | 98 | 1015.3 |
| 20260510032519 | 19 | 0 | 0.0 | 6.4 | 0.00 | 6.30 | 6.25 | 98 | 1015.2 |
| 20260510032019 | 19 | 16 | 0.0 | 4.8 | 0.00 | 6.30 | 6.25 | 98 | 1015.3 |
| 20260510031538 | 19 | 0 | 0.0 | 4.8 | 0.00 | 6.30 | 6.25 | 98 | 1015.5 |
| 20260510031019 | 19 | 16 | 1.6 | 4.8 | 0.00 | 6.30 | 6.25 | 98 | 1015.4 |
| 20260510030519 | 19 | 0 | 0.0 | 0.0 | 0.00 | 6.30 | 6.25 | 98 | 1015.6 |
| 20260510030034 | 19 | 0 | 0.0 | 0.0 | 0.00 | 6.30 | 6.25 | 98 | 1015.6 |
| 20260510025522 | 19 | 0 | 0.0 | 0.0 | 0.00 | 6.30 | 6.25 | 98 | 1015.6 |
| 20260510025020 | 19 | 0 | 0.0 | 0.0 | 0.00 | 6.30 | 6.25 | 98 | 1015.5 |
| 20260510024535 | 19 | 0 | 0.0 | 4.8 | 0.00 | 6.30 | 6.25 | 98 | 1015.4 |
| 20260510024022 | 19 | 0 | 0.0 | 4.8 | 0.00 | 6.30 | 6.25 | 98 | 1015.1 |
| 20260510023520 | 19 | 15 | 0.0 | 3.2 | 0.00 | 6.30 | 6.25 | 98 | 1014.8 |
| 20260510023036 | 19 | 15 | 0.0 | 3.2 | 0.00 | 6.30 | 6.25 | 98 | 1014.6 |
| 20260510022519 | 19 | 0 | 0.0 | 3.2 | 0.00 | 6.30 | 6.25 | 98 | 1014.7 |
| 20260510022019 | 19 | 0 | 0.0 | 3.2 | 0.00 | 6.30 | 6.25 | 98 | 1014.8 |
| 20260510021616 | 19 | 0 | 0.0 | 4.8 | 0.00 | 6.30 | 6.25 | 98 | 1014.5 |
| 20260510021019 | 19 | 0 | 1.6 | 4.8 | 0.00 | 6.30 | 6.25 | 98 | 1014.6 |
| 20260510020519 | 19 | 14 | 0.0 | 4.8 | 0.00 | 6.30 | 6.25 | 98 | 1014.7 |
| 20260510020035 | 19 | 0 | 0.0 | 4.8 | 0.00 | 6.30 | 6.25 | 98 | 1015.1 |
| 20260510015521 | 19 | 0 | 0.0 | 4.8 | 0.00 | 6.30 | 6.25 | 98 | 1015.0 |
| 20260510015018 | 19 | 0 | 0.0 | 3.2 | 0.03 | 6.30 | 6.25 | 98 | 1015.0 |
| 20260510014548 | 19 | 0 | 0.0 | 4.8 | 0.03 | 6.30 | 6.25 | 98 | 1014.7 |
| 20260510014020 | 19 | 0 | 0.0 | 6.4 | 0.05 | 6.30 | 6.25 | 98 | 1014.6 |
| 20260510013522 | 19 | 14 | 1.6 | 6.4 | 0.08 | 6.30 | 6.25 | 98 | 1014.7 |
| 20260510013034 | 19 | 17 | 1.6 | 6.4 | 0.08 | 6.30 | 6.25 | 98 | 1014.6 |
| 20260510012519 | 19 | 0 | 0.0 | 6.4 | 0.08 | 6.30 | 6.25 | 98 | 1014.4 |
| 20260510012019 | 19 | 17 | 3.2 | 14.5 | 0.08 | 6.30 | 6.25 | 98 | 1014.4 |
| 20260510011534 | 19 | 0 | 3.2 | 14.5 | 0.10 | 6.30 | 6.25 | 98 | 1014.6 |
| 20260510011021 | 19 | 323 | 4.8 | 14.5 | 0.10 | 6.30 | 6.25 | 98 | 1014.7 |
| 20260510010517 | 19 | 303 | 1.6 | 14.5 | 0.10 | 6.30 | 6.25 | 98 | 1014.2 |
| 20260510010049 | 19 | 0 | 3.2 | 16.1 | 0.10 | 6.30 | 6.25 | 98 | 1013.4 |
| 20260510005522 | 19 | 136 | 4.8 | 16.1 | 0.10 | 6.35 | 6.25 | 98 | 1013.2 |
| 20260510005022 | 19 | 153 | 8.0 | 16.1 | 0.10 | 6.32 | 6.22 | 98 | 1013.2 |
| 20260510004535 | 19 | 161 | 6.4 | 12.9 | 0.10 | 6.32 | 6.22 | 98 | 1013.6 |
| 20260510004019 | 19 | 148 | 3.2 | 6.4 | 0.08 | 6.30 | 6.20 | 97 | 1013.8 |
| 20260510003519 | 19 | 0 | 0.0 | 4.8 | 0.05 | 6.27 | 6.17 | 97 | 1013.9 |
| 20260510003036 | 19 | 0 | 0.0 | 4.8 | 0.05 | 6.27 | 6.17 | 97 | 1014.0 |
| 20260510002520 | 19 | 0 | 1.6 | 4.8 | 0.08 | 6.27 | 6.17 | 97 | 1013.4 |
| 20260510002019 | 19 | 0 | 1.6 | 6.4 | 0.10 | 6.27 | 6.17 | 97 | 1013.2 |
| 20260510001535 | 19 | 116 | 3.2 | 6.4 | 0.08 | 6.25 | 6.15 | 97 | 1013.3 |
| 20260510001019 | 19 | 109 | 1.6 | 6.4 | 0.08 | 6.25 | 6.15 | 97 | 1013.6 |
| 20260510000520 | 19 | 0 | 1.6 | 6.4 | 0.10 | 6.25 | 6.15 | 97 | 1014.1 |
| 20260510000041 | 19 | 0 | 0.0 | 4.8 | 0.10 | 6.25 | 6.15 | 97 | 1014.2 |
| 20260509235520 | 19 | 0 | 0.0 | 6.4 | 0.13 | 6.30 | 6.15 | 97 | 1014.1 |
| 20260509235019 | 19 | 109 | 0.0 | 6.4 | 0.10 | 6.27 | 6.12 | 97 | 1013.8 |
| 20260509234538 | 19 | 109 | 1.6 | 6.4 | 0.10 | 6.27 | 6.12 | 97 | 1013.9 |
| 20260509234018 | 19 | 109 | 1.6 | 9.7 | 0.13 | 6.27 | 6.12 | 97 | 1014.1 |
| 20260509233519 | 19 | 0 | 3.2 | 9.7 | 0.13 | 6.27 | 6.12 | 97 | 1014.0 |
| 20260509233036 | 19 | 0 | 3.2 | 6.4 | 0.15 | 6.27 | 6.12 | 97 | 1013.7 |
| 20260509232521 | 19 | 84 | 1.6 | 4.8 | 0.15 | 6.25 | 6.10 | 97 | 1013.8 |
| 20260509232019 | 19 | 84 | 0.0 | 4.8 | 0.15 | 6.22 | 6.07 | 97 | 1013.7 |
| 20260509231537 | 19 | 84 | 1.6 | 4.8 | 0.18 | 6.22 | 6.07 | 97 | 1013.6 |
| 20260509231019 | 19 | 0 | 0.0 | 0.0 | 0.20 | 6.22 | 6.07 | 97 | 1013.8 |
| 20260509230519 | 19 | 0 | 0.0 | 0.0 | 0.18 | 6.20 | 6.05 | 97 | 1013.9 |
| 20260509230040 | 19 | 0 | 0.0 | 0.0 | 0.18 | 6.20 | 6.05 | 97 | 1013.8 |
| 20260509225519 | 19 | 0 | 0.0 | 6.4 | 0.18 | 6.60 | 5.99 | 97 | 1013.8 |
| 20260509225018 | 19 | 0 | 0.0 | 6.4 | 0.18 | 6.60 | 5.99 | 97 | 1014.0 |
| 20260509224536 | 19 | 30 | 3.2 | 6.4 | 0.18 | 6.60 | 5.99 | 97 | 1013.7 |
| 20260509224019 | 19 | 42 | 0.0 | 4.8 | 0.15 | 6.58 | 5.97 | 97 | 1013.4 |
| 20260509223519 | 18 | 236 | 0.0 | 4.8 | 0.15 | 6.58 | 5.97 | 97 | 1013.2 |
| 20260509223038 | 18 | 0 | 0.0 | 4.8 | 0.13 | 6.55 | 5.94 | 97 | 1013.7 |
| 20260509222519 | 18 | 0 | 1.6 | 6.4 | 0.13 | 6.53 | 5.92 | 97 | 1014.0 |
| 20260509222019 | 18 | 218 | 0.0 | 6.4 | 0.10 | 6.50 | 5.92 | 98 | 1013.8 |
| 20260509221538 | 18 | 218 | 0.0 | 6.4 | 0.08 | 6.48 | 5.89 | 98 | 1013.6 |
| 20260509221021 | 18 | 0 | 0.0 | 3.2 | 0.05 | 6.45 | 5.87 | 98 | 1013.9 |
| 20260509220522 | 18 | 0 | 0.0 | 3.2 | 0.08 | 6.45 | 5.87 | 98 | 1013.9 |
| 20260509220035 | 18 | 262 | 0.0 | 4.8 | 0.08 | 6.45 | 5.87 | 98 | 1013.7 |
| 20260509215517 | 18 | 0 | 1.6 | 4.8 | 0.08 | 6.83 | 5.84 | 98 | 1013.8 |
| 20260509215019 | 18 | 0 | 0.0 | 4.8 | 0.08 | 6.83 | 5.84 | 97 | 1013.4 |
| 20260509214539 | 18 | 0 | 1.6 | 4.8 | 0.10 | 6.83 | 5.84 | 97 | 1013.3 |
| 20260509214019 | 18 | 272 | 0.0 | 3.2 | 0.13 | 6.83 | 5.84 | 97 | 1013.3 |
| 20260509213519 | 18 | 0 | 0.0 | 3.2 | 0.15 | 6.83 | 5.84 | 97 | 1013.3 |
| 20260509213037 | 18 | 0 | 0.0 | 3.2 | 0.15 | 6.83 | 5.84 | 97 | 1013.0 |
| 20260509212520 | 18 | 0 | 0.0 | 9.7 | 0.13 | 6.81 | 5.82 | 97 | 1013.3 |
| 20260509212022 | 18 | 0 | 1.6 | 9.7 | 0.15 | 6.81 | 5.82 | 97 | 1013.2 |
| 20260509211537 | 18 | 13 | 0.0 | 4.8 | 0.18 | 6.81 | 5.82 | 97 | 1013.0 |
| 20260509211019 | 18 | 0 | 0.0 | 8.0 | 0.18 | 6.78 | 5.79 | 97 | 1012.6 |
| 20260509210521 | 18 | 0 | 0.0 | 12.9 | 0.20 | 6.78 | 5.79 | 97 | 1012.4 |
| 20260509210040 | 18 | 150 | 4.8 | 12.9 | 0.25 | 6.78 | 5.79 | 97 | 1012.3 |
| 20260509205517 | 18 | 123 | 1.6 | 9.7 | 0.28 | 7.39 | 5.77 | 97 | 1012.6 |
| 20260509205019 | 18 | 0 | 1.6 | 9.7 | 0.33 | 7.39 | 5.77 | 97 | 1012.7 |
| 20260509204539 | 18 | 158 | 4.8 | 9.7 | 0.33 | 7.37 | 5.74 | 97 | 1012.8 |
| 20260509204020 | 18 | 0 | 1.6 | 8.0 | 0.33 | 7.34 | 5.71 | 98 | 1013.3 |
| 20260509203523 | 18 | 300 | 3.2 | 8.0 | 0.36 | 7.32 | 5.69 | 97 | 1013.7 |
| 20260509203036 | 18 | 0 | 1.6 | 14.5 | 0.41 | 7.32 | 5.69 | 97 | 1013.0 |
| 20260509202523 | 18 | 163 | 6.4 | 14.5 | 0.43 | 7.29 | 5.66 | 97 | 1012.1 |
| 20260509202023 | 18 | 145 | 6.4 | 14.5 | 0.46 | 7.29 | 5.66 | 98 | 1012.2 |
| 20260509201539 | 18 | 163 | 4.8 | 11.3 | 0.48 | 7.26 | 5.64 | 97 | 1012.9 |
| 20260509201022 | 18 | 169 | 1.6 | 3.2 | 0.51 | 7.24 | 5.61 | 97 | 1013.8 |
| 20260509200519 | 18 | 0 | 0.0 | 3.2 | 0.48 | 7.19 | 5.56 | 97 | 1014.2 |
| 20260509200045 | 18 | 0 | 0.0 | 3.2 | 0.51 | 7.16 | 5.54 | 97 | 1014.5 |
| 20260509195524 | 18 | 169 | 0.0 | 3.2 | 0.48 | 8.84 | 5.49 | 97 | 1014.5 |
| 20260509195022 | 18 | 169 | 0.0 | 4.8 | 0.48 | 8.79 | 5.44 | 97 | 1014.5 |
| 20260509194550 | 18 | 0 | 0.0 | 8.0 | 0.46 | 8.76 | 5.41 | 97 | 1014.3 |
| 20260509194019 | 18 | 0 | 3.2 | 8.0 | 0.46 | 8.74 | 5.36 | 97 | 1014.1 |
| 20260509193525 | 18 | 0 | 0.0 | 6.4 | 0.41 | 8.66 | 5.28 | 97 | 1014.1 |
| 20260509193040 | 18 | 0 | 0.0 | 9.7 | 0.38 | 8.64 | 5.28 | 97 | 1014.3 |
| 20260509192519 | 18 | 163 | 3.2 | 9.7 | 0.33 | 8.59 | 5.23 | 97 | 1013.8 |
| 20260509192019 | 18 | 187 | 0.0 | 6.4 | 0.28 | 8.53 | 5.18 | 97 | 1014.2 |
| 20260509191538 | 18 | 0 | 0.0 | 6.4 | 0.25 | 8.51 | 5.16 | 97 | 1014.5 |
| 20260509191025 | 18 | 0 | 1.6 | 3.2 | 0.20 | 8.46 | 5.11 | 97 | 1014.5 |
| 20260509190519 | 18 | 0 | 0.0 | 4.8 | 0.15 | 8.41 | 5.05 | 97 | 1014.1 |
| 20260509190037 | 18 | 0 | 1.6 | 8.0 | 0.13 | 8.38 | 5.03 | 97 | 1014.5 |
| 20260509185524 | 18 | 194 | 0.0 | 8.0 | 0.10 | 9.91 | 5.00 | 97 | 1014.6 |
| 20260509185022 | 18 | 188 | 3.2 | 8.0 | 0.05 | 9.86 | 4.95 | 97 | 1014.2 |
| 20260509184536 | 18 | 0 | 0.0 | 4.8 | 0.05 | 9.86 | 4.95 | 97 | 1014.4 |
| 20260509184020 | 18 | 175 | 1.6 | 4.8 | 0.03 | 9.83 | 4.93 | 97 | 1014.2 |
| 20260509183519 | 18 | 176 | 0.0 | 8.0 | 0.00 | 9.80 | 4.90 | 97 | 1014.1 |
| 20260509183036 | 18 | 178 | 1.6 | 8.0 | 0.00 | 9.80 | 4.90 | 97 | 1014.3 |
| 20260509182520 | 18 | 145 | 0.0 | 4.8 | 0.00 | 9.80 | 4.90 | 97 | 1014.2 |
| 20260509182022 | 18 | 0 | 0.0 | 4.8 | 0.00 | 9.80 | 4.90 | 97 | 1014.2 |
| 20260509181538 | 18 | 144 | 1.6 | 6.4 | 0.00 | 9.80 | 4.90 | 97 | 1014.1 |
| 20260509181021 | 18 | 0 | 1.6 | 6.4 | 0.03 | 9.80 | 4.90 | 97 | 1014.3 |
| 20260509180522 | 18 | 175 | 0.0 | 11.3 | 0.03 | 9.80 | 4.90 | 97 | 1014.3 |
| 20260509180049 | 18 | 168 | 1.6 | 11.3 | 0.03 | 9.80 | 4.90 | 97 | 1014.3 |
| 20260509175519 | 18 | 136 | 1.6 | 11.3 | 0.03 | 10.97 | 4.90 | 97 | 1014.1 |
| 20260509175019 | 18 | 159 | 3.2 | 9.7 | 0.03 | 10.97 | 4.90 | 97 | 1013.8 |
| 20260509174537 | 18 | 166 | 3.2 | 9.7 | 0.03 | 10.97 | 4.90 | 97 | 1013.8 |
| 20260509174023 | 18 | 0 | 1.6 | 9.7 | 0.03 | 10.97 | 4.90 | 97 | 1014.3 |
| 20260509173520 | 18 | 147 | 3.2 | 14.5 | 0.03 | 10.97 | 4.90 | 97 | 1014.3 |
| 20260509173051 | 18 | 150 | 8.0 | 14.5 | 0.03 | 10.97 | 4.90 | 97 | 1014.3 |
| 20260509172525 | 18 | 0 | 3.2 | 14.5 | 0.03 | 10.97 | 4.90 | 97 | 1014.4 |
| 20260509172023 | 18 | 157 | 4.8 | 12.9 | 0.03 | 10.97 | 4.90 | 97 | 1014.3 |
| 20260509171541 | 18 | 133 | 1.6 | 8.0 | 0.00 | 10.95 | 4.88 | 97 | 1014.2 |
| 20260509171022 | 18 | 0 | 1.6 | 20.9 | 0.03 | 10.95 | 4.88 | 97 | 1014.3 |
| 20260509170523 | 17 | 133 | 4.8 | 20.9 | 0.05 | 10.95 | 4.88 | 97 | 1014.6 |
| 20260509170038 | 17 | 138 | 8.0 | 20.9 | 0.10 | 10.95 | 4.88 | 97 | 1014.3 |
| 20260509165521 | 17 | 223 | 1.6 | 14.5 | 0.13 | 10.95 | 4.88 | 97 | 1014.6 |
| 20260509165019 | 17 | 168 | 4.8 | 14.5 | 0.15 | 10.95 | 4.88 | 97 | 1014.0 |
| 20260509164538 | 17 | 122 | 6.4 | 14.5 | 0.20 | 10.95 | 4.88 | 97 | 1013.5 |
| 20260509164021 | 17 | 136 | 1.6 | 12.9 | 0.28 | 10.95 | 4.88 | 97 | 1014.2 |
| 20260509163523 | 17 | 113 | 3.2 | 16.1 | 0.30 | 10.95 | 4.88 | 97 | 1014.2 |
| 20260509163036 | 17 | 0 | 4.8 | 16.1 | 0.36 | 10.95 | 4.88 | 97 | 1014.2 |
| 20260509162523 | 17 | 113 | 8.0 | 16.1 | 0.38 | 10.95 | 4.88 | 97 | 1014.5 |
| 20260509162022 | 17 | 146 | 1.6 | 17.7 | 0.41 | 10.95 | 4.88 | 97 | 1014.7 |
| 20260509161546 | 17 | 144 | 4.8 | 17.7 | 0.41 | 10.95 | 4.88 | 97 | 1014.5 |
| 20260509161022 | 17 | 131 | 11.3 | 17.7 | 0.41 | 10.92 | 4.85 | 97 | 1013.5 |
| 20260509160521 | 17 | 121 | 8.0 | 19.3 | 0.41 | 10.90 | 4.83 | 97 | 1014.7 |
| 20260509160040 | 17 | 124 | 8.0 | 19.3 | 0.36 | 10.85 | 4.78 | 97 | 1015.3 |
| 20260509155522 | 17 | 173 | 6.4 | 16.1 | 0.36 | 10.82 | 4.75 | 97 | 1015.5 |
| 20260509155021 | 17 | 159 | 8.0 | 17.7 | 0.36 | 10.74 | 4.70 | 97 | 1015.5 |
| 20260509154545 | 17 | 175 | 6.4 | 17.7 | 0.33 | 10.69 | 4.65 | 97 | 1015.3 |
| 20260509154022 | 17 | 156 | 4.8 | 19.3 | 0.30 | 10.64 | 4.60 | 97 | 1015.4 |
| 20260509153519 | 17 | 161 | 9.7 | 19.3 | 0.28 | 10.59 | 4.55 | 97 | 1015.2 |
| 20260509153051 | 17 | 159 | 6.4 | 19.3 | 0.25 | 10.57 | 4.50 | 97 | 1014.8 |
| 20260509152519 | 17 | 164 | 4.8 | 19.3 | 0.28 | 10.57 | 4.50 | 97 | 1014.9 |
| 20260509152019 | 17 | 157 | 8.0 | 19.3 | 0.33 | 10.54 | 4.47 | 97 | 1014.7 |
| 20260509151543 | 17 | 122 | 4.8 | 14.5 | 0.38 | 10.54 | 4.47 | 97 | 1014.4 |
| 20260509151019 | 17 | 122 | 4.8 | 12.9 | 0.43 | 10.52 | 4.45 | 97 | 1014.6 |
| 20260509150519 | 17 | 69 | 6.4 | 12.9 | 0.43 | 10.49 | 4.42 | 97 | 1014.3 |
| 20260509150036 | 17 | 121 | 3.2 | 12.9 | 0.48 | 10.49 | 4.42 | 97 | 1014.5 |
| 20260509145523 | 17 | 111 | 4.8 | 11.3 | 0.51 | 10.46 | 4.37 | 97 | 1014.4 |
| 20260509145020 | 17 | 128 | 1.6 | 9.7 | 0.56 | 10.44 | 4.34 | 97 | 1014.6 |
| 20260509144545 | 17 | 117 | 3.2 | 9.7 | 0.58 | 10.41 | 4.32 | 97 | 1014.4 |
| 20260509144021 | 17 | 146 | 3.2 | 6.4 | 0.58 | 10.39 | 4.29 | 97 | 1014.5 |
| 20260509143521 | 17 | 148 | 1.6 | 4.8 | 0.61 | 10.36 | 4.27 | 97 | 1014.8 |
| 20260509143038 | 17 | 148 | 1.6 | 11.3 | 0.58 | 10.34 | 4.24 | 97 | 1014.7 |
| 20260509142519 | 17 | 149 | 1.6 | 11.3 | 0.58 | 10.29 | 4.19 | 96 | 1014.5 |
| 20260509142019 | 17 | 154 | 3.2 | 9.7 | 0.56 | 10.24 | 4.14 | 96 | 1014.5 |
| 20260509141542 | 18 | 0 | 1.6 | 6.4 | 0.51 | 10.16 | 4.06 | 96 | 1014.7 |
| 20260509141020 | 18 | 96 | 3.2 | 9.7 | 0.48 | 10.11 | 4.01 | 96 | 1014.9 |
| 20260509140519 | 18 | 107 | 3.2 | 9.7 | 0.46 | 10.06 | 3.96 | 96 | 1014.7 |
| 20260509140052 | 18 | 107 | 3.2 | 8.0 | 0.46 | 10.01 | 3.91 | 96 | 1014.4 |
| 20260509135520 | 18 | 120 | 1.6 | 6.4 | 0.46 | 9.96 | 3.86 | 96 | 1014.7 |
| 20260509135020 | 18 | 119 | 1.6 | 6.4 | 0.46 | 9.88 | 3.78 | 96 | 1014.8 |
| 20260509134532 | 18 | 122 | 0.0 | 8.0 | 0.48 | 9.83 | 3.73 | 96 | 1014.6 |
| 20260509134021 | 18 | 45 | 0.0 | 8.0 | 0.53 | 9.78 | 3.68 | 96 | 1014.6 |
| 20260509133519 | 18 | 42 | 1.6 | 6.4 | 0.64 | 9.75 | 3.66 | 96 | 1014.9 |
| 20260509133039 | 18 | 0 | 1.6 | 8.0 | 0.79 | 9.75 | 3.66 | 96 | 1015.0 |
| 20260509132522 | 18 | 0 | 1.6 | 8.0 | 1.07 | 9.70 | 3.61 | 96 | 1015.1 |
| 20260509132020 | 18 | 30 | 4.8 | 9.7 | 1.42 | 9.68 | 3.58 | 96 | 1015.4 |
| 20260509131534 | 18 | 42 | 1.6 | 17.7 | 1.96 | 9.65 | 3.56 | 96 | 1015.3 |
| 20260509131022 | 18 | 346 | 6.4 | 17.7 | 2.57 | 9.63 | 3.53 | 96 | 1015.2 |